EW5657 Weather Reports


time (UTC)temp
C
wind
direction
speed
KPH
gust
KPH
rain 1hr
cm
rain 24hr
cm
rain mn
cm
humidity
%
barometer
mb
20190424115920 14 191 0.0 0.0 0.00 0.00 0.00 85 1024.1
20190424115916 14 191 0.0 1.6 0.00 0.00 0.00 86 1024.2
20190424114916 14 191 0.0 0.0 0.00 0.00 0.00 84 1024.0
20190424114415 14 191 0.0 0.0 0.00 0.00 0.00 84 1024.0
20190424113917 14 191 0.0 0.0 0.00 0.00 0.00 84 1023.9
20190424113414 14 191 0.0 0.0 0.00 0.00 0.00 84 1023.9
20190424112916 14 191 0.0 0.0 0.00 0.00 0.00 84 1023.9
20190424112415 15 191 0.0 0.0 0.00 0.00 0.00 83 1023.8
20190424111916 15 191 0.0 0.0 0.00 0.00 0.00 83 1023.8
20190424111415 15 191 0.0 0.0 0.00 0.00 0.00 83 1023.8
20190424110916 15 191 0.0 0.0 0.00 0.00 0.00 83 1023.8
20190424110415 15 191 0.0 0.0 0.00 0.00 0.00 83 1023.9
20190424105916 15 191 0.0 0.0 0.00 0.00 0.00 82 1023.9
20190424105415 15 191 0.0 0.0 0.00 0.00 0.00 83 1023.8
20190424104913 15 191 0.0 3.2 0.00 0.00 0.00 83 1023.8
20190424104413 15 191 0.0 3.2 0.00 0.00 0.00 83 1023.9
20190424103912 15 191 1.6 3.2 0.00 0.00 0.00 83 1023.9
20190424103414 15 191 0.0 3.2 0.00 0.00 0.00 83 1023.9
20190424102912 15 191 0.0 4.8 0.00 0.00 0.00 83 1023.8
20190424102413 15 191 0.0 4.8 0.00 0.00 0.00 83 1023.8
20190424101911 15 191 0.0 3.2 0.00 0.00 0.00 83 1023.8
20190424101410 15 191 0.0 3.2 0.00 0.00 0.00 83 1023.8
20190424100909 15 191 0.0 0.0 0.00 0.00 0.00 83 1023.9
20190424100410 15 191 0.0 0.0 0.00 0.00 0.00 83 1023.9
20190424095906 15 191 0.0 3.2 0.00 0.00 0.00 83 1023.8
20190424095406 15 191 0.0 3.2 0.00 0.00 0.00 83 1023.8
20190424094905 15 191 0.0 3.2 0.00 0.00 0.00 83 1023.8
20190424094405 15 191 1.6 3.2 0.00 0.00 0.00 83 1023.9
20190424093906 15 191 1.6 4.8 0.00 0.00 0.00 83 1023.9
20190424093405 15 191 1.6 4.8 0.00 0.00 0.00 83 1023.9
20190424092904 15 191 1.6 6.4 0.00 0.00 0.00 83 1023.7
20190424092404 16 191 1.6 6.4 0.00 0.00 0.00 83 1023.6
20190424091903 16 191 1.6 6.4 0.00 0.00 0.00 83 1023.7
20190424091400 16 191 1.6 6.4 0.00 0.00 0.00 83 1023.6
20190424090900 16 191 3.2 6.4 0.00 0.00 0.00 83 1023.5
20190424090359 16 191 1.6 8.0 0.00 0.00 0.00 83 1023.5
20190424085900 16 192 1.6 8.0 0.00 0.00 0.00 83 1023.5
20190424085401 16 190 3.2 8.0 0.00 0.00 0.00 83 1023.4
20190424084903 16 191 3.2 8.0 0.00 0.00 0.00 83 1023.4
20190424084400 16 191 3.2 11.3 0.00 0.00 0.00 83 1023.4
20190424083859 16 189 3.2 11.3 0.00 0.00 0.00 83 1023.2
20190424083358 16 185 1.6 6.4 0.00 0.00 0.00 83 1023.1
20190424082909 16 185 1.6 8.0 0.00 0.00 0.00 83 1023.0
20190424082359 16 185 3.2 9.7 0.00 0.00 0.00 83 1023.0
20190424081903 16 180 3.2 9.7 0.00 0.00 0.00 83 1022.8
20190424081358 16 170 1.6 9.7 0.00 0.00 0.00 83 1022.8
20190424080858 16 170 3.2 9.7 0.00 0.00 0.00 82 1022.8
20190424080358 16 170 1.6 8.0 0.00 0.00 0.00 82 1022.6
20190424075857 16 168 1.6 8.0 0.00 0.00 0.00 82 1022.7
20190424075359 16 168 3.2 8.0 0.00 0.00 0.00 82 1022.6
20190424074857 16 168 3.2 9.7 0.00 0.00 0.00 82 1022.6
20190424074358 16 164 1.6 9.7 0.00 0.00 0.00 81 1022.7
20190424073856 16 151 3.2 11.3 0.00 0.00 0.00 81 1022.6
20190424073357 16 131 4.8 16.1 0.00 0.00 0.00 81 1022.6
20190424072858 16 175 6.4 16.1 0.00 0.00 0.00 81 1022.6
20190424072354 16 214 6.4 16.1 0.00 0.00 0.00 81 1022.7
20190424071856 16 204 4.8 16.1 0.00 0.00 0.00 80 1022.6
20190424071355 16 175 4.8 14.5 0.00 0.00 0.00 80 1022.6
20190424070856 16 201 6.4 16.1 0.00 0.00 0.00 80 1022.5
20190424070357 16 180 8.0 19.3 0.00 0.00 0.00 81 1022.5
20190424065854 16 185 8.0 19.3 0.00 0.00 0.00 81 1022.6
20190424065356 16 185 8.0 22.5 0.00 0.00 0.00 81 1022.6
20190424064852 17 197 9.7 22.5 0.00 0.00 0.00 81 1022.6
20190424064352 17 193 11.3 22.5 0.00 0.00 0.00 81 1022.6
20190424063851 17 216 11.3 24.1 0.00 0.00 0.00 81 1022.5
20190424063350 17 203 11.3 25.7 0.00 0.00 0.00 81 1022.4
20190424062851 17 185 9.7 25.7 0.00 0.00 0.00 82 1022.3
20190424062358 17 225 8.0 20.9 0.00 0.00 0.00 82 1022.3
20190424061850 17 193 9.7 24.1 0.00 0.00 0.00 82 1022.2
20190424061351 17 232 9.7 25.7 0.00 0.00 0.00 81 1022.2
20190424061020 18 197 8.0 25.7 0.00 0.00 0.00 81 1022.1
20190424060353 18 193 8.0 22.5 0.00 0.00 0.00 80 1022.1
20190424055851 18 196 6.4 22.5 0.00 0.00 0.00 80 1022.1
20190424055351 18 165 4.8 14.5 0.00 0.00 0.00 79 1022.1
20190424054850 18 194 4.8 14.5 0.00 0.00 0.00 78 1021.9
20190424054350 18 175 3.2 14.5 0.00 0.00 0.00 78 1021.9
20190424053852 18 175 3.2 14.5 0.00 0.00 0.00 78 1021.8
20190424053350 18 208 4.8 16.1 0.00 0.00 0.00 77 1021.7
20190424052849 18 195 4.8 16.1 0.00 0.00 0.00 76 1021.7
20190424052351 18 195 1.6 12.9 0.00 0.00 0.00 76 1021.7
20190424051850 19 175 1.6 14.5 0.00 0.00 0.00 76 1021.7
20190424051348 19 175 3.2 14.5 0.00 0.00 0.00 74 1021.6
20190424050847 19 205 4.8 17.7 0.00 0.00 0.00 74 1021.6
20190424050344 20 210 4.8 17.7 0.00 0.00 0.00 73 1021.6
20190424045844 20 195 1.6 14.5 0.00 0.00 0.00 73 1021.6
20190424045347 20 227 1.6 9.7 0.00 0.00 0.00 73 1021.6
20190424044845 20 194 0.0 1.6 0.00 0.00 0.00 75 1021.5
20190424044345 19 193 0.0 8.0 0.00 0.00 0.00 76 1021.5
20190424043845 19 193 3.2 11.3 0.00 0.00 0.00 76 1021.5
20190424043345 19 199 4.8 14.5 0.00 0.00 0.00 75 1021.4
20190424042844 19 203 1.6 14.5 0.00 0.00 0.00 74 1021.5
20190424042346 20 231 0.0 1.6 0.00 0.00 0.00 73 1021.4
20190424041846 20 214 0.0 1.6 0.00 0.00 0.00 71 1021.3
20190424041345 20 215 0.0 1.6 0.00 0.00 0.00 72 1021.4
20190424040844 20 217 0.0 1.6 0.00 0.00 0.00 71 1021.4
20190424040345 20 226 0.0 0.0 0.00 0.00 0.00 71 1021.5
20190424035846 20 225 0.0 0.0 0.00 0.00 0.00 69 1021.5
20190424035343 21 226 0.0 0.0 0.00 0.00 0.00 69 1021.5
20190424034842 21 228 0.0 0.0 0.00 0.00 0.00 67 1021.5
20190424034343 21 229 0.0 0.0 0.00 0.00 0.00 68 1021.7
20190424033841 21 328 1.6 9.7 0.00 0.00 0.00 67 1021.7
20190424033343 20 332 1.6 9.7 0.00 0.00 0.00 68 1021.8
20190424032842 20 333 0.0 0.0 0.00 0.00 0.00 69 1022.0
20190424032341 20 332 0.0 0.0 0.00 0.00 0.00 71 1022.0
20190424031841 19 333 0.0 0.0 0.00 0.00 0.00 71 1022.1
20190424031339 19 239 0.0 0.0 0.00 0.00 0.00 73 1022.3
20190424030841 18 239 0.0 0.0 0.00 0.00 0.00 73 1022.5
20190424030341 18 239 0.0 0.0 0.00 0.00 0.00 73 1022.6
20190424025841 18 239 0.0 1.6 0.00 0.00 0.00 75 1022.8
20190424025340 18 239 0.0 1.6 0.00 0.00 0.00 75 1022.9
20190424024839 18 239 0.0 1.6 0.00 0.00 0.00 74 1023.0
20190424024343 18 239 0.0 0.0 0.00 0.00 0.00 75 1023.1
20190424023842 18 239 0.0 0.0 0.00 0.00 0.00 74 1023.2
20190424023340 18 291 0.0 1.6 0.00 0.00 0.00 74 1023.3
20190424022838 18 293 0.0 3.2 0.00 0.00 0.00 74 1023.3
20190424022339 18 295 1.6 6.4 0.00 0.00 0.00 74 1023.5
20190424021838 18 0 1.6 6.4 0.00 0.00 0.00 74 1023.6
20190424021335 18 0 1.6 6.4 0.00 0.00 0.00 74 1023.6
20190424020832 18 0 1.6 6.4 0.00 0.00 0.00 74 1023.7
20190424020334 18 39 1.6 6.4 0.00 0.00 0.00 73 1023.8
20190424015831 18 47 1.6 4.8 0.00 0.00 0.00 74 1023.9
20190424015333 18 47 1.6 6.4 0.00 0.00 0.00 74 1024.0
20190424014831 18 47 0.0 6.4 0.00 0.00 0.00 74 1024.0
20190424014331 18 48 0.0 1.6 0.00 0.00 0.00 75 1023.9
20190424013834 18 48 1.6 8.0 0.00 0.00 0.00 75 1023.8
20190424013333 18 48 3.2 11.3 0.00 0.00 0.00 76 1023.7
20190424012832 18 49 6.4 11.3 0.00 0.00 0.00 76 1023.6
20190424012332 17 8 6.4 12.9 0.00 0.00 0.00 76 1023.6
20190424011832 17 42 6.4 12.9 0.00 0.00 0.00 77 1023.6
20190424011331 17 349 6.4 12.9 0.00 0.00 0.00 77 1023.5
20190424010832 17 10 4.8 12.9 0.00 0.00 0.00 78 1023.6
20190424010331 17 338 4.8 14.5 0.00 0.00 0.00 79 1023.6
20190424005831 17 37 3.2 14.5 0.00 0.00 0.00 79 1023.8
20190424005332 17 26 1.6 11.3 0.00 0.00 0.00 80 1023.9
20190424004830 17 14 3.2 8.0 0.00 0.00 0.00 81 1023.9
20190424004331 16 29 3.2 8.0 0.00 0.00 0.00 82 1024.0
20190424003829 16 27 3.2 8.0 0.00 0.00 0.00 83 1024.2
20190424003329 16 25 1.6 8.0 0.00 0.00 0.00 84 1024.2
20190424002830 16 19 1.6 11.3 0.00 0.00 0.00 85 1024.3
20190424002331 16 68 3.2 11.3 0.00 0.00 0.00 85 1024.4
20190424001829 16 114 3.2 4.8 0.00 0.00 0.00 85 1024.5
20190424001328 16 114 1.6 4.8 0.00 0.00 0.00 85 1024.6
20190424000827 16 118 0.0 4.8 0.00 0.00 0.00 86 1024.6
20190424000329 16 119 1.6 8.0 0.00 0.00 0.00 85 1024.7
20190423235827 16 119 0.0 8.0 0.00 0.00 0.00 85 1024.7
20190423235327 16 120 0.0 0.0 0.00 0.00 0.00 85 1024.9
20190423234828 16 120 0.0 0.0 0.00 0.00 0.00 84 1025.1
20190423234329 16 120 1.6 4.8 0.00 0.00 0.00 84 1025.2
20190423233828 16 120 1.6 6.4 0.00 0.00 0.00 82 1025.3
20190423233329 16 119 3.2 6.4 0.00 0.00 0.00 82 1025.4
20190423232831 16 120 1.6 4.8 0.00 0.00 0.00 81 1025.4
20190423232329 16 120 0.0 3.2 0.00 0.00 0.00 81 1025.4
20190423231829 16 120 0.0 1.6 0.00 0.00 0.00 81 1025.4
20190423231329 16 120 0.0 0.0 0.00 0.00 0.00 81 1025.4
20190423230825 16 120 0.0 0.0 0.00 0.00 0.00 81 1025.5
20190423230327 16 120 0.0 1.6 0.00 0.00 0.00 81 1025.6
20190423225825 16 120 0.0 1.6 0.00 0.00 0.00 81 1025.6
20190423225325 16 120 0.0 0.0 0.00 0.00 0.00 81 1025.7
20190423224825 16 120 0.0 3.2 0.00 0.00 0.00 81 1025.7
20190423224325 16 120 0.0 3.2 0.00 0.00 0.00 81 1025.7
20190423223825 16 120 0.0 0.0 0.00 0.00 0.00 82 1025.6
20190423223325 16 120 0.0 0.0 0.00 0.00 0.00 81 1025.5
20190423222824 16 120 0.0 0.0 0.00 0.00 0.00 81 1025.5
20190423222324 16 120 0.0 0.0 0.00 0.00 0.00 81 1025.5
20190423221823 15 120 0.0 0.0 0.00 0.00 0.00 81 1025.4
20190423221323 15 120 0.0 0.0 0.00 0.00 0.00 81 1025.4
20190423220824 15 120 0.0 0.0 0.00 0.00 0.00 81 1025.4
20190423220331 15 120 0.0 0.0 0.00 0.00 0.00 81 1025.3
20190423215824 15 120 0.0 0.0 0.00 0.00 0.00 81 1025.4
20190423215321 15 120 0.0 0.0 0.00 0.00 0.00 82 1025.3
20190423214827 15 120 0.0 0.0 0.00 0.00 0.00 82 1025.4
20190423214322 15 120 0.0 0.0 0.00 0.00 0.00 81 1025.4
20190423213820 15 120 0.0 0.0 0.00 0.00 0.00 81 1025.4
20190423213319 15 120 0.0 0.0 0.00 0.00 0.00 81 1025.3
20190423212819 15 120 0.0 0.0 0.00 0.00 0.00 81 1025.3
20190423212322 15 120 0.0 0.0 0.00 0.00 0.00 81 1025.3
20190423211820 15 120 0.0 0.0 0.00 0.00 0.00 81 1025.2
20190423211319 15 120 0.0 0.0 0.00 0.00 0.00 81 1025.2
20190423210820 15 120 0.0 0.0 0.00 0.00 0.00 81 1025.1
20190423210319 15 120 0.0 0.0 0.00 0.00 0.00 81 1025.1
20190423205821 15 120 0.0 0.0 0.00 0.00 0.00 81 1025.0
20190423205319 15 120 0.0 0.0 0.00 0.00 0.00 81 1024.9
20190423204822 15 120 0.0 0.0 0.00 0.00 0.00 81 1024.9
20190423204320 15 120 0.0 0.0 0.00 0.00 0.00 81 1024.9
20190423203819 15 120 0.0 0.0 0.00 0.00 0.00 80 1024.9
20190423203318 15 120 0.0 0.0 0.00 0.00 0.00 80 1024.9
20190423202821 15 120 0.0 0.0 0.00 0.00 0.00 80 1024.9
20190423202319 15 120 0.0 0.0 0.00 0.00 0.00 80 1024.9
20190423201821 15 120 0.0 0.0 0.00 0.00 0.00 80 1024.9
20190423201319 15 120 0.0 0.0 0.00 0.00 0.00 80 1024.9
20190423200821 15 120 0.0 0.0 0.00 0.00 0.00 80 1024.9
20190423200319 15 120 0.0 0.0 0.00 0.00 0.00 80 1025.0
20190423195819 15 120 0.0 0.0 0.00 0.00 0.00 80 1025.0
20190423195320 15 120 0.0 0.0 0.00 0.00 0.00 80 1024.9
20190423194817 15 120 0.0 0.0 0.00 0.00 0.00 80 1024.9
20190423194315 15 120 0.0 0.0 0.00 0.00 0.00 80 1024.8
20190423193817 15 120 0.0 0.0 0.00 0.00 0.00 80 1024.9
20190423193315 15 120 0.0 0.0 0.00 0.00 0.00 80 1024.9
20190423192816 15 120 0.0 0.0 0.00 0.00 0.00 80 1024.9
20190423192315 15 120 0.0 0.0 0.00 0.00 0.00 80 1024.9
20190423191814 15 120 0.0 0.0 0.00 0.00 0.00 80 1024.9
20190423191313 15 120 0.0 0.0 0.00 0.00 0.00 80 1024.8
20190423190813 15 120 0.0 0.0 0.00 0.00 0.00 79 1024.9
20190423190312 15 120 0.0 0.0 0.00 0.00 0.00 79 1024.8
20190423185815 15 120 0.0 0.0 0.00 0.00 0.00 79 1024.9
20190423185312 15 120 0.0 3.2 0.00 0.00 0.00 79 1024.9
20190423184814 15 120 1.6 4.8 0.00 0.00 0.00 79 1024.9
20190423184315 15 120 1.6 4.8 0.00 0.00 0.00 79 1024.9
20190423183814 15 120 1.6 4.8 0.00 0.00 0.00 79 1025.0
20190423183316 15 120 1.6 6.4 0.00 0.00 0.00 79 1024.9
20190423182812 15 120 1.6 6.4 0.00 0.00 0.00 79 1024.9
20190423182311 15 120 1.6 4.8 0.00 0.00 0.00 79 1024.8
20190423181812 15 120 1.6 4.8 0.00 0.00 0.00 79 1024.7
20190423181312 15 120 3.2 6.4 0.00 0.00 0.00 79 1024.8
20190423180811 15 120 3.2 11.3 0.00 0.00 0.00 79 1024.8
20190423180311 15 120 1.6 11.3 0.00 0.00 0.00 80 1024.7
20190423175811 15 120 1.6 6.4 0.00 0.00 0.00 80 1024.8
20190423175311 15 120 1.6 6.4 0.00 0.00 0.00 80 1024.9
20190423174811 15 120 1.6 4.8 0.00 0.00 0.00 80 1024.9
20190423174310 15 120 1.6 4.8 0.00 0.00 0.00 80 1024.9
20190423173810 15 120 0.0 0.0 0.00 0.00 0.00 80 1024.8
20190423173310 15 120 0.0 0.0 0.00 0.00 0.00 80 1024.9
20190423172810 15 120 0.0 0.0 0.00 0.00 0.00 80 1024.9
20190423172308 15 120 0.0 4.8 0.00 0.00 0.00 80 1025.0
20190423171810 15 120 1.6 8.0 0.00 0.00 0.00 80 1025.1
20190423171310 15 120 1.6 8.0 0.00 0.00 0.00 80 1025.1
20190423170812 15 120 1.6 6.4 0.00 0.00 0.00 80 1025.1
20190423170309 15 119 1.6 4.8 0.00 0.00 0.00 80 1025.1
20190423165808 15 119 1.6 4.8 0.00 0.00 0.00 79 1025.1
20190423165308 15 119 0.0 4.8 0.00 0.00 0.00 79 1025.3
20190423164807 15 119 0.0 0.0 0.00 0.00 0.00 79 1025.3
20190423164306 15 119 0.0 0.0 0.00 0.00 0.00 79 1025.4
20190423163806 15 119 0.0 0.0 0.00 0.00 0.00 79 1025.4
20190423163308 15 119 0.0 0.0 0.00 0.00 0.00 79 1025.4
20190423162807 15 119 0.0 0.0 0.00 0.00 0.00 79 1025.3
20190423162307 15 119 0.0 4.8 0.00 0.00 0.00 79 1025.4
20190423161807 15 119 1.6 8.0 0.00 0.00 0.00 79 1025.3
20190423161308 15 119 1.6 8.0 0.00 0.00 0.00 79 1025.3
20190423160807 15 118 1.6 6.4 0.00 0.00 0.00 79 1025.2
20190423160308 15 118 1.6 4.8 0.00 0.00 0.00 79 1025.3
20190423155807 15 118 1.6 6.4 0.00 0.00 0.00 79 1025.4
20190423155306 15 118 0.0 6.4 0.00 0.00 0.00 79 1025.5
20190423154808 15 117 0.0 0.0 0.00 0.00 0.00 79 1025.7
20190423154304 15 117 0.0 0.0 0.00 0.00 0.00 79 1025.8
20190423153804 15 117 0.0 0.0 0.00 0.00 0.00 79 1025.8
20190423153309 15 117 0.0 0.0 0.00 0.00 0.00 79 1025.9
20190423152805 15 117 0.0 0.0 0.00 0.00 0.00 79 1026.0
20190423152306 15 117 0.0 0.0 0.00 0.00 0.00 79 1026.1
20190423151805 15 117 0.0 0.0 0.00 0.00 0.00 79 1026.1
20190423151304 15 117 0.0 0.0 0.00 0.00 0.00 80 1026.2
20190423150803 15 117 0.0 0.0 0.00 0.00 0.00 79 1026.0
20190423150302 15 117 0.0 0.0 0.00 0.00 0.00 79 1025.9
20190423145801 15 117 0.0 0.0 0.00 0.00 0.00 79 1025.9
20190423145301 15 117 0.0 3.2 0.00 0.00 0.00 79 1025.9
20190423144805 15 117 0.0 0.0 0.00 0.00 0.00 79 1025.9
20190423144800 15 117 0.0 3.2 0.00 0.00 0.00 79 1026.0
20190423144305 15 117 0.0 0.0 0.00 0.00 0.00 79 1025.9
20190423143802 15 117 0.0 0.0 0.00 0.00 0.00 79 1026.0
20190423143302 15 117 0.0 0.0 0.00 0.00 0.00 79 1026.1
20190423142800 15 117 0.0 1.6 0.00 0.00 0.00 79 1026.1
20190423142258 15 117 0.0 1.6 0.00 0.00 0.00 79 1026.1
20190423141758 15 117 0.0 0.0 0.00 0.00 0.00 78 1026.2
20190423141256 15 117 0.0 0.0 0.00 0.00 0.00 78 1026.3
20190423140758 15 117 0.0 0.0 0.00 0.00 0.00 78 1026.3
20190423140256 15 117 0.0 0.0 0.00 0.00 0.00 78 1026.4
20190423135800 15 117 0.0 0.0 0.00 0.00 0.00 77 1026.5
20190423135258 15 117 0.0 0.0 0.00 0.00 0.00 77 1026.5
20190423134757 15 117 0.0 0.0 0.00 0.00 0.00 77 1026.5
20190423134256 15 117 0.0 0.0 0.00 0.00 0.00 77 1026.5
20190423133755 15 117 0.0 1.6 0.00 0.00 0.00 77 1026.6
20190423133255 15 117 0.0 3.2 0.00 0.00 0.00 77 1026.7
20190423132754 15 117 1.6 6.4 0.00 0.00 0.00 77 1026.8
20190423132255 15 117 1.6 6.4 0.00 0.00 0.00 77 1026.8
20190423131753 15 117 1.6 4.8 0.00 0.00 0.00 77 1026.9
20190423131254 15 117 1.6 6.4 0.00 0.00 0.00 77 1026.9
20190423130754 15 117 1.6 8.0 0.00 0.00 0.00 76 1027.1
20190423130255 15 117 1.6 8.0 0.00 0.00 0.00 76 1027.2
20190423125754 16 117 1.6 6.4 0.00 0.00 0.00 76 1027.3
20190423125254 16 117 1.6 6.4 0.00 0.00 0.00 76 1027.3
20190423124751 16 117 3.2 8.0 0.00 0.00 0.00 76 1027.4
20190423124252 16 117 4.8 14.5 0.00 0.00 0.00 76 1027.4
20190423123751 16 116 6.4 14.5 0.00 0.00 0.00 76 1027.5
20190423123251 16 132 3.2 9.7 0.00 0.00 0.00 76 1027.5
20190423122749 16 130 3.2 8.0 0.00 0.00 0.00 76 1027.5
20190423122252 16 130 4.8 11.3 0.00 0.00 0.00 76 1027.5
20190423121751 16 129 4.8 14.5 0.00 0.00 0.00 76 1027.6
20190423121252 16 125 3.2 14.5 0.00 0.00 0.00 76 1027.6
20190423120755 16 156 1.6 8.0 0.00 0.00 0.00 76 1027.7
20190423120248 16 156 1.6 8.0 0.00 0.00 0.00 76 1027.8